Location: *
(48.8489°N, 2.3218°E)
Time: 14:13:12
(UTC+00:00)

Cosmos 2112 Rocket - Pass Details

Date: 23 August 2019
Orbit: 757 x 787 km, 74.1° (Epoch: 22 September)

Event Time Altitude Azimuth Distance (km) Brightness Sun altitude
Rises 20:10:45 0° 335° (NNW) 3,253 8.4 -12.5°
Reaches altitude 10° 20:13:09 10° 333° (NNW) 2,318 7.5 -12.8°
Maximum altitude 20:18:22 69° 251° (WSW) 817 4.2 -13.5°
Enters shadow 20:23:13 12° 169° (S) 2,170 5.9 -14.2°
